Flag for Canada Weather past 2 weeks in Stonewall, Manitoba, Canada

Now
57 °F

Mostly cloudy.


Feels Like: 53 °F
Forecast: 51 / 61 °F
Wind: 20 mph from Southeast

Location: Winnipeg Int. Airportman.

Current Time: Sep 30, 2014 at 7:29:15 PM

Latest Report: Sep 30, 2014 at 7:00 PM


Visibility: 15 mi

Pressure: 29.73 "Hg

Humidity: 63%

Dew point: 45 °F

Location of StonewallLocation

Historic Weather in Stonewall — Graph

°F

Stonewall temperature yesterday

Maximum temperature yesterday: 52 °F (at 5:00 PM)
Minimum temperature yesterday: 41 °F (at 7:00 AM)
Average temperature yesterday: 47 °F

Past Weeks' High & Low Weather Summary

 TemperatureHumidityPressure
High86 °F (Sep 26, 3:00 PM)100% (Sep 20, 6:00 AM)30.36 "Hg (Sep 20, 6:00 AM)
Low37 °F (Sep 18, 4:00 AM)30% (Sep 22, 3:00 PM)29.45 "Hg (Sep 19, 8:00 AM)
Average58 °F78%30.00 "Hg
* Reported Sep 15 6:00 PM — Sep 30 6:00 PM, Stonewall, Weather by CustomWeather, © 2014

Note: Actual official high and low records may vary slightly from our data, if they occured in-between our weather recording intervals... More about our weather records

Advertising

Stonewall weather history for previous 24 hours

 ConditionsComfort  
Time TempWeatherWind HumidityBarometerVisibility
6:00 PM
Sep 30
59 °FBroken clouds.16 mph59%29.73 "Hg15 mi
5:00 PM61 °FPartly sunny.15 mph55%29.78 "Hg15 mi
4:00 PM61 °FPartly sunny.17 mph55%29.80 "Hg15 mi
3:00 PM59 °FPartly sunny.18 mph59%29.83 "Hg15 mi
2:00 PM57 °FPartly sunny.16 mph67%29.85 "Hg15 mi
1:00 PM52 °FBroken clouds.17 mph77%29.90 "Hg15 mi
12:00 PM48 °FPartly sunny.18 mph82%29.92 "Hg15 mi
10:00 AM45 °FLow clouds.17 mph93%29.97 "Hg15 mi
9:00 AM45 °FLow clouds.17 mph93%30.00 "Hg15 mi
8:00 AM43 °FLow clouds.15 mph100%30.00 "Hg12 mi
7:00 AM41 °FPassing clouds.12 mph100%30.01 "Hg15 mi
6:45 AM41 °FPassing clouds.12 mph93%30.02 "Hg15 mi
6:00 AM43 °FPassing clouds.12 mph93%30.03 "Hg15 mi
5:00 AM43 °FPassing clouds.12 mph93%30.05 "Hg15 mi
4:00 AM43 °FPassing clouds.12 mph93%30.06 "Hg15 mi
3:00 AM45 °FPassing clouds.12 mph93%30.06 "Hg15 mi
2:00 AM46 °FPassing clouds.12 mph87%30.09 "Hg15 mi
1:00 AM50 °FPassing clouds.10 mph82%30.09 "Hg15 mi
12:00 AM50 °FPassing clouds.12 mph82%30.10 "Hg15 mi
11:00 PM
Sep 29
50 °FOvercast.10 mph82%30.12 "Hg15 mi
10:00 PM52 °FPassing clouds.9 mph77%30.13 "Hg15 mi
9:00 PM52 °FPassing clouds.7 mph72%30.15 "Hg15 mi
8:00 PM50 °FOvercast.7 mph76%30.16 "Hg15 mi
7:00 PM52 °FOvercast.5 mph72%30.17 "Hg15 mi
Weather by CustomWeather, © 2014

See weather overviewHow to use our weather pages